SCP
0 0 0 0 0 0 0 0 0 0 0 0 0 0 0 0 0 0 0 0 0 0 0 0 0 0 0 0 0 0 0 0 0 0 0 0 0 0 0 0 0 0 0 0
0 0 0 0 0 0 0 0 0 0 0 0 0 0 0 0 0 0 0 0 0 0 0 0 0 0 0 0 0 0 0 0 0 0 0 0 0 0 0 0 0 0 0 0
0 0 0 0 0 0 0 0 0 0 0 0 0 0 0 0 0 0 0 0 0 0 0 0 0 0 0 0 0 0 0 0 0 0 0 0 0 0 0 0 0 0 0 0
0 0 0 0 0 0 0 0 0 0 0 0 0 -0 -0 0 0 0 0 0 0 0 0 0 0 0 0 0 0 0 0 0 0 0 0 0 0 0 0 0 0 0 0 0
0 0 0 0 0 0 0 0 0 0 0 0 0 -0 -0 0 0 0 0 0 0 0 0 0 0 0 0 0 0 0 0 0 0 0 0 0 0 0 0 0 0 0 0 0
0 0 0 0 0 0 0 0 0 0 0 0 0 -0 -0 0 0 0 0 0 0 0 0 0 0 0 0 0 0 0 0 0 0 0 0 0 0 0 0 0 0 0 0 0
0 0 0 0 0 0 0 0 0 0 0 0 0 0 0 0 0 0 0 0 0 0 0 0 0 0 0 0 0 0 0 0 0 0 0 0 0 0 0 0 0 0 0 0
0 0 0 0 0 0 0 0 0 0 0 0 0 0 0 0 0 0 0 0 0 0 0 0 0 0 0 0 0 0 0 0 0 0 0 0 0 0 0 0 0 0 0 0
0 0 0 0 0 0 0 0 0 0 0 0 0 0 0 0 0 0 0 0 0 0 0 0 0 0 0 0 0 0 -0 0 0 0 0 0 0 0 0 0 0 0 0 0
0 0 0 0 0 0 0 0 0 0 0 0 0 0 0 0 0 0 0 0 0 0 0 0 0 0 0 0 0 -0 -0 -0 0 0 0 0 0 0 0 0 0 0 0 0
0 0 0 0 0 0 0 0 0 0 0 0 0 0 0 0 0 0 0 0 0 0 0 0 0 0 -0 -0 -0 -0 0 0 0 0 0 0 0 0 0 0 0 0 0 0
0 0 0 0 0 0 0 0 0 0 0 0 0 0 0 0 0 0 0 0 0 0 0 0 0 0 -0 -0 -0 -0 0 0 0 0 0 0 0 0 0 0 0 0 0 0
0 0 0 0 0 0 0 0 0 0 0 0 0 0 0 0 0 0 0 0 0 0 0 0 0 0 0 -0 -0 -0 0 0 0 0 0 0 0 0 0 0 0 0 0 0
0 0 0 0 0 0 0 0 0 0 0 0 0 0 0 0 0 0 0 0 0 0 0 0 0 0 0 0 0 0 0 0 0 0 0 0 0 0 0 0 0 0 0 0
0 0 0 0 0 0 0 0 0 0 0 0 0 0 0 0 0 0 0 0 0 0 0 0 0 0 0 0 0 -0 0 0 0 0 0 0 0 0 0 0 0 0 0 0
0 0 0 0 0 0 0 0 0 0 0 0 0 0 0 0 0 0 0 0 0 0 0 0 0 0 0 0 0 0 0 0 0 0 0 0 0 0 0 0 0 0 0 0
0 0 0 0 0 0 0 0 0 0 0 0 0 0 0 0 0 0 0 0 0 0 0 0 0 0 0 0 0 0 0 0 0 0 0 0 0 0 0 0 0 0 0 0
0 0 0 0 0 0 0 0 0 0 0 0 0 0 0 0 0 0 0 0 0 0 0 0 0 0 0 0 0 0 0 0 0 0 0 0 0 0 0 0 0 0 0 0
0 0 0 0 0 0 0 0 0 0 0 0 0 0 -0 -0 0 0 0 0 0 0 0 0 0 0 0 0 0 0 0 0 0 0 0 0 0 0 0 0 0 0 0 0
0 0 0 0 0 0 0 0 0 0 0 0 0 -0 -0 0 0 0 0 0 0 0 0 0 0 0 0 0 0 0 0 0 0 0 0 0 0 0 0 0 0 0 0 0
0 0 0 0 0 0 0 0 0 0 0 0 0 -0 -0 0 0 0 0 0 0 0 0 0 0 0 0 0 0 0 0 0 0 0 0 0 0 0 0 0 0 0 0 0
0 0 0 0 0 0 0 0 0 0 0 0 0 -0 -0 0 0 0 0 0 0 0 0 0 0 0 0 0 0 0 -0 -0 -0 0 0 0 0 0 0 0 0 0 0 0
0 0 0 0 0 0 0 0 0 0 0 0 0 0 0 0 0 0 0 0 0 0 0 0 0 0 0 0 0 0 0 -0 -0 0 0 0 0 0 0 0 0 0 0 0
0 0 0 0 0 0 0 0 0 0 0 0 0 0 0 0 0 0 0 0 0 0 0 0 0 0 0 0 0 0 0 -0 -0 0 0 0 0 0 0 0 0 0 0 0
0 0 0 0 0 0 0 0 0 0 0 0 0 0 0 0 0 0 0 0 0 0 0 0 0 0 0 0 0 0 0 0 0 0 0 0 0 0 0 0 0 0 0 0
0 0 0 0 0 0 0 0 0 0 0 0 0 0 0 0 0 0 0 0 0 0 0 0 0 0 0 0 0 0 0 0 0 0 0 0 0 0 0 0 0 0 0 0
Wind_Speed
1 2 2 4 5 5 4 5 7 7 4 3 6 9 9 5 3 4 4 4 4 4 3 4 5 5 5 5 5 5 5 3 4 3 3 2 1 1 1 1 2 2 2 3
3 2 5 4 3 4 4 5 6 6 3 3 5 9 7 4 5 5 6 6 5 4 4 4 4 5 5 5 5 4 4 3 3 2 2 2 2 1 1 1 1 2 2 2
2 5 4 2 2 2 4 4 4 5 6 3 2 7 5 4 3 3 4 5 6 7 7 7 6 4 4 4 5 5 4 4 3 3 2 3 3 2 1 1 1 0 2 2
3 3 2 2 2 1 4 4 4 4 3 4 1 4 7 4 3 3 4 5 6 6 6 6 6 6 5 4 4 4 4 4 3 4 4 4 3 2 2 1 1 0 1 2
4 2 2 3 4 2 5 4 4 3 1 2 1 1 8 3 4 5 6 6 6 7 7 7 7 7 5 4 4 4 4 4 3 4 4 4 3 2 1 1 1 0 1 1
4 2 2 3 3 3 3 3 3 2 2 2 2 2 7 4 5 4 5 6 7 7 7 6 5 5 4 3 3 3 4 3 3 4 4 4 4 4 3 2 2 1 1 0
6 4 2 1 3 4 3 4 5 6 4 5 2 2 8 6 5 6 6 7 6 7 7 6 7 7 6 5 5 4 5 4 3 4 4 4 5 5 5 4 3 2 1 1
3 6 3 1 1 2 2 3 3 1 3 6 3 4 8 5 4 3 3 4 4 5 6 7 8 8 7 7 6 6 6 5 4 4 4 4 4 3 3 3 3 3 3 3
1 6 4 2 1 1 1 0 3 3 2 3 5 7 7 2 3 2 1 2 5 6 6 7 7 7 7 7 7 7 7 5 5 5 4 3 3 3 3 3 3 2 2 2
2 4 5 3 1 1 1 2 3 2 1 4 6 5 5 5 4 3 2 3 4 4 4 5 6 6 6 6 6 5 6 6 5 4 4 3 3 3 3 3 3 3 3 2
1 1 5 3 1 2 0 0 1 1 2 1 4 7 5 4 4 4 4 3 4 4 5 5 5 6 5 5 5 5 5 4 4 4 3 3 3 3 3 3 4 4 3 3
1 2 4 6 4 2 2 3 3 2 3 2 3 9 5 3 2 2 3 3 2 3 3 3 4 4 4 5 5 5 5 5 5 4 4 3 3 3 3 3 3 3 3 3
1 2 3 7 4 2 1 2 2 2 1 2 3 9 4 3 3 2 2 2 2 2 2 2 3 4 5 5 5 5 5 5 4 4 4 3 3 3 3 3 3 3 3 3
3 3 5 6 6 3 5 5 3 3 3 5 8 10 9 7 6 5 4 3 3 3 3 3 3 4 4 5 5 5 5 4 4 4 4 4 4 4 4 3 3 3 3 3
3 3 5 7 8 6 9 10 7 8 8 8 9 9 12 9 7 5 4 3 3 4 4 4 5 4 4 4 4 5 5 4 4 5 5 5 4 3 3 3 3 2 3 3
2 2 2 6 6 6 10 11 9 9 8 9 10 13 10 7 4 4 4 4 5 5 5 5 5 5 5 6 5 5 5 5 4 5 5 4 3 3 3 3 2 2 2 2
2 3 1 5 5 5 8 7 7 6 6 7 8 9 5 4 4 5 5 4 5 5 5 6 6 6 6 6 6 6 5 4 5 5 4 4 4 4 3 3 2 2 2 2
5 4 2 3 3 6 7 2 4 5 6 6 6 5 4 5 6 5 4 5 5 5 5 5 5 5 5 4 4 4 4 4 5 4 4 4 4 4 3 2 2 2 1 2
5 5 3 1 3 9 8 4 2 3 5 2 4 5 5 4 4 4 3 3 4 5 5 5 5 4 4 4 4 4 4 4 4 5 5 5 5 4 3 3 3 2 1 1
2 4 3 3 4 7 6 2 1 0 4 2 1 3 4 2 3 6 5 4 4 4 3 3 2 2 3 4 4 5 4 4 5 5 5 4 4 4 4 4 3 2 2 2
3 3 5 5 6 10 7 3 1 2 5 3 2 2 2 3 5 6 5 4 3 3 3 2 2 2 4 4 5 5 5 6 5 4 3 3 4 4 4 3 2 2 1 1
7 6 6 5 6 10 3 1 3 5 4 3 3 3 4 5 5 5 5 4 4 4 3 2 1 2 2 4 5 5 6 5 3 3 4 4 3 3 3 3 2 2 2 1
7 8 7 9 9 5 2 4 4 3 4 4 4 5 5 5 5 5 5 5 4 4 4 2 2 2 2 3 5 6 5 4 4 4 4 3 3 2 3 3 3 2 2 2
5 3 3 6 8 6 5 5 5 4 5 6 5 5 4 5 6 6 6 5 5 4 4 3 2 3 3 4 4 5 4 4 5 5 4 3 3 3 2 2 3 3 3 3
6 3 3 7 7 6 5 4 5 5 5 5 5 5 5 6 7 6 6 6 5 5 4 3 3 4 5 4 4 4 4 4 5 5 4 3 3 3 3 3 3 4 4 4
6 7 7 9 8 6 8 6 5 6 6 6 6 6 6 5 7 7 6 6 5 5 4 3 4 5 5 4 4 4 4 5 5 4 4 4 3 3 3 2 2 4 5 7
Wind_Direction
103 61 278 256 231 230 252 269 282 275 272 268 255 269 278 270 235 225 215 201 196 193 176 153 148 149 147 146 149 155 147 162 147 136 131 129 131 112 94 117 128 128 121 113
34 278 253 255 257 244 251 275 287 292 291 264 269 276 273 249 226 216 206 200 192 172 152 155 152 153 157 159 158 158 156 160 163 154 147 143 132 134 132 99 100 140 135 125
213 258 281 289 298 290 271 247 273 291 317 318 306 305 286 275 233 214 202 194 183 179 175 170 166 166 159 166 173 173 168 167 165 145 122 103 85 72 76 69 58 175 148 130
275 283 310 305 284 270 275 245 255 288 342 310 2 302 294 280 279 236 212 196 193 185 179 175 170 169 176 180 182 167 164 163 162 150 150 149 151 165 187 177 167 324 165 144
287 291 308 288 276 246 255 281 272 266 235 307 328 251 289 298 260 246 225 208 203 194 185 184 182 180 177 172 172 164 162 163 161 157 160 153 148 153 134 118 135 159 271 148
258 274 252 262 282 250 276 341 355 29 68 314 254 195 283 261 245 249 227 214 208 197 189 186 178 164 166 167 162 161 165 172 170 163 164 164 162 158 153 167 179 197 254 251
327 316 302 305 333 349 33 49 21 5 4 272 280 213 257 262 249 228 222 216 209 192 184 182 175 175 179 180 177 175 173 181 180 172 177 180 177 173 180 189 192 191 209 225
341 310 298 311 257 296 329 110 129 230 266 291 315 250 260 275 281 253 216 203 193 187 188 190 189 186 188 190 187 183 185 187 186 187 193 190 183 182 192 197 194 199 211 217
258 280 293 276 260 164 8 127 172 152 262 279 286 290 303 318 333 326 256 183 196 198 193 195 195 193 194 195 195 193 192 192 193 194 191 192 190 190 198 200 197 206 217 215
183 278 295 303 352 316 183 164 81 89 328 300 302 290 273 296 298 298 275 226 219 212 202 201 198 197 200 198 195 191 191 197 196 193 193 195 196 197 195 186 199 209 216 210
150 236 306 337 258 250 220 163 137 147 181 208 295 281 243 261 262 257 261 255 233 220 212 207 206 201 195 189 186 188 192 192 192 192 193 190 197 198 192 194 207 210 211 205
148 138 277 271 262 247 202 203 156 166 266 213 237 272 280 274 280 253 272 275 256 224 211 205 198 191 188 189 190 191 193 193 196 191 186 193 194 191 197 210 212 205 207 211
129 113 335 337 335 346 293 246 189 166 174 208 225 267 302 338 335 309 283 276 260 240 222 207 192 191 197 198 197 196 196 197 193 184 182 188 190 195 209 217 213 202 200 209
119 166 192 225 248 262 273 267 238 188 213 240 236 262 290 300 299 296 287 267 255 239 221 210 209 209 207 202 199 199 201 195 189 183 182 191 199 202 207 209 205 204 199 205
119 219 243 256 265 262 259 262 244 220 217 227 251 258 271 275 273 270 266 261 252 246 236 224 217 215 213 207 204 202 201 196 187 183 190 201 201 196 192 198 205 206 207 214
139 222 279 284 276 276 273 266 248 239 233 239 260 272 270 276 277 274 266 251 246 245 241 235 225 214 212 209 205 203 205 199 184 187 198 196 186 185 190 200 200 202 217 223
193 182 253 278 302 319 278 250 213 220 221 209 232 253 284 299 288 267 258 252 244 245 244 238 228 217 215 210 200 200 202 194 185 189 193 190 186 187 194 192 188 202 214 219
172 163 197 280 340 260 248 247 208 226 251 232 244 269 284 276 279 270 246 238 251 256 254 244 234 222 215 205 197 189 180 183 187 189 192 190 184 189 186 179 195 208 206 215
170 161 180 214 268 277 290 278 211 221 276 252 249 282 300 313 334 313 284 257 249 252 252 245 234 222 206 196 186 168 177 184 190 197 198 194 185 185 185 193 205 211 205 228
116 140 163 194 239 254 257 270 283 98 281 296 286 297 312 343 330 290 300 299 286 282 271 255 236 207 201 201 172 167 182 187 203 206 200 190 184 185 192 200 202 197 199 221
145 170 197 210 239 264 261 269 66 209 261 297 284 281 281 248 244 273 296 298 293 292 288 275 226 209 212 189 167 179 190 209 214 199 182 180 181 188 190 186 187 189 197 214
181 182 198 186 217 254 252 138 192 238 282 292 279 272 269 267 277 286 289 291 299 302 298 286 252 242 220 184 176 192 211 217 195 177 180 185 186 188 178 174 189 191 186 212
204 196 192 198 220 249 223 226 253 258 274 279 273 275 273 274 277 284 287 288 288 284 278 272 247 246 241 207 192 205 219 196 180 180 189 193 190 191 183 182 193 203 203 214
251 204 199 250 262 262 261 266 273 260 259 271 271 273 270 272 276 279 281 281 280 275 268 265 251 245 248 232 221 220 211 184 179 189 198 192 189 199 200 197 195 199 209 221
234 208 230 258 274 291 271 251 262 269 269 275 280 274 267 266 272 271 273 272 268 269 265 253 242 244 248 237 232 227 203 182 188 196 199 199 199 200 207 213 215 216 219 215
212 207 217 247 249 250 269 273 272 272 275 278 281 284 277 258 263 269 268 266 265 266 265 258 249 245 247 234 232 227 207 190 190 199 201 200 200 204 207 215 253 249 240 250